{"data":{"norad_id":63792,"intl_designator":"2025-091T","name":"STARLINK-33916","alt_names":[],"object_type":"PAYLOAD","status":"ACTIVE","operator":null,"country":"US","launch_date":"2025-05-02","launch_site_code":"AFETR","launch_vehicle":null,"mission":null,"orbit_class":"UNKNOWN","rcs_meters":null,"size_class":null,"mass_kg":null,"dimensions":null,"purposes":["comms"],"wikipedia_slug":null,"has_3d_model":false,"image_url":null,"decayed_at":null,"tle_current":{"epoch":"2026-05-24T23:02:54.341088Z","epoch_age_seconds":68743,"freshness":"FRESH","line1":"1 63792U 25091T   26144.96035117  .00016468  00000+0  60640-3 0  9996","line2":"2 63792  43.0001 342.0632 0001579 267.2526  92.8145 15.27592155 60567","mean_motion":15.27592155,"eccentricity":0.0001579,"inclination_deg":43.0001,"raan_deg":342.0632,"arg_perigee_deg":267.2526,"mean_anomaly_deg":92.8145,"bstar":0.0006064,"rev_number":6056,"period_min":94.265998636266,"perigee_km":481.92932430065,"apogee_km":484.09607537586,"semimajor_km":6861.1496998383,"source":"CELESTRAK","updated_at":"2026-05-25T13:38:20.136363Z"}}}